sat.trackr.live / text

‹ back to catalog

STARLINK-32806

NORAD 62735 · 2025-014A

PAYLOAD ACTIVE UNKNOWN

§ Identity

Operator
Country
US
Launch date
2025-01-21
Launch site
AFETR
Launch vehicle
Mass (kg)
RCS (m²)

Purposes: comms

External: N2YO · Heavens-Above · Gunter

§ Orbital elements

Epoch: 2026-05-25T04:20:37.330368Z

Period
94.27 min
Inclination
42.9991°
Eccentricity
0.0001052
Mean motion
15.27594997 rev/d
Perigee alt
482.3 km
Apogee alt
483.7 km
Semi-major
6,861.1 km
B*
7.2191e-4
RAAN
82.5905°
Arg perigee
268.3393°
Mean anomaly
91.7338°
Rev number
7,495

§ Raw data

STARLINK-328061 62735U 25014A   26145.18098762  .00019665  00000+0  72191-3 0  99932 62735  42.9991  82.5905 0001052 268.3393  91.7338 15.27594997 74954

JSON: /api/v1/satellites/62735 · /tle

For live sub-satellite position, see the globe view (requires WebGL).

§ Visibility from observer

Set your observer location to see the next 7 days of passes ≥ 10°. The values pass through the URL so the page stays shareable.

No JS? Fill the form by hand. The geolocation button needs JavaScript.